Preston, MN

8:08 AM CDT on April 25, 2017 (GMT -0500)
Preston

Weather History for KFKA - January, 2014

Change the Weather History Date:

Sunday, January 26, 2014

  Actual Average (KRST) Record (KRST)
Temperature  
Mean Temperature 8 °F -  
Max Temperature 20 °F 19 °F 52 °F (2002)
Min Temperature -4 °F 2 °F -30 °F (1917)
Degree Days  
Heating Degree Days 57    
Moisture  
Dew Point 6 °F    
Average Humidity 82    
Maximum Humidity 90    
Minimum Humidity 72    
Precipitation  
Precipitation 0.03 in - - ()
Sea Level Pressure  
Sea Level Pressure 29.53 in    
Wind  
Wind Speed 17 mph (WNW)    
Max Wind Speed 43 mph    
Max Gust Speed 51 mph    
Visibility 3 miles    
Events Snow    
Averages and records for this station are not official NWS values.
T = Trace of Precipitation, MM = Missing Value Source: NWS Daily Summary

Daily Weather History Graph

Daily Weather History Graph

Search for Another Location

Airport or City:

Trip Planner

Search our weather history database for the weather conditions in past years. The results will help you decide how hot, cold, wet, or windy it might be!

Date:

Astronomy

Jan. 26, 2014 Rise Set
Actual Time 7:31 AM CST 5:11 PM CST
Civil Twilight 7:00 AM CST 5:42 PM CST
Nautical Twilight 6:25 AM CST 6:17 PM CST
Astronomical Twilight 5:51 AM CST 6:51 PM CST
Moon 3:09 AM CST (1/26) 1:00 PM CST (1/26)
Length of Visible Light 10h 42m
Length of Day
9h 40m
Waning Crescent, 23% of the Moon is Illuminated
Jan 26
Waning Crescent
Jan 30
New
Feb 6
First Quarter
Feb 14
Full
Feb 22
Last Quarter

Hourly Weather History & Observations

Time (CST) Temp. Windchill Dew Point Humidity Pressure Visibility Wind Dir Wind Speed Gust Speed Precip Events Conditions
12:14 AM 7.5 °F -5.0 °F 4.5 °F 87% 29.54 in 0.8 mi South 8.1 mph - 0.01 in Snow Light Snow
12:34 AM 7.7 °F -3.7 °F 4.6 °F 87% 29.51 in 1.0 mi SE 6.9 mph - 0.02 in Snow Light Snow
12:54 AM 7.7 °F -5.8 °F 4.6 °F 87% 29.48 in 1.2 mi SE 9.2 mph - 0.02 in Snow Light Snow
1:14 AM 7.7 °F -4.8 °F 4.8 °F 88% 29.48 in 1.5 mi SE 8.1 mph - 0.01 in Snow Light Snow
1:34 AM 7.9 °F -6.4 °F 4.8 °F 87% 29.45 in 3.0 mi SE 10.4 mph - 0.01 in Snow Light Snow
1:54 AM 8.6 °F -4.7 °F 5.5 °F 87% 29.45 in 10.0 mi SE 9.2 mph - 0.01 in   Overcast
2:15 AM 9.1 °F -5.6 °F 5.7 °F 86% 29.42 in 7.0 mi SE 11.5 mph - N/A   Overcast
2:34 AM 9.5 °F -5.9 °F 6.1 °F 86% 29.40 in 5.0 mi SE 12.7 mph - N/A   Overcast
2:54 AM 9.3 °F -4.6 °F 6.8 °F 89% 29.38 in 4.0 mi SE 10.4 mph - N/A Snow Light Snow
3:14 AM 9.9 °F -3.1 °F 7.5 °F 90% 29.37 in 3.0 mi SSE 9.2 mph - N/A Snow Light Snow
3:34 AM 10.4 °F -3.3 °F 7.7 °F 89% 29.37 in 2.5 mi SSE 10.4 mph - N/A Snow Light Snow
3:54 AM 10.8 °F -2.0 °F 7.7 °F 87% 29.36 in 3.0 mi SSE 9.2 mph - N/A Snow Light Snow
4:14 AM 10.9 °F 1.4 °F 8.1 °F 88% 29.36 in 4.0 mi SSE 5.8 mph 9.2 mph N/A Snow Light Snow
4:33 AM 11.3 °F -0.4 °F 8.1 °F 87% 29.36 in 10.0 mi SSE 8.1 mph - N/A Snow Light Snow
4:54 AM 11.1 °F -2.4 °F 7.7 °F 86% 29.35 in 10.0 mi SSE 10.4 mph - N/A Snow Light Snow
5:14 AM 11.1 °F 1.7 °F 8.1 °F 87% 29.35 in 5.0 mi SSE 5.8 mph - N/A Snow Light Snow
5:34 AM 11.3 °F 0.7 °F 8.2 °F 87% 29.36 in 5.0 mi South 6.9 mph - N/A Snow Light Snow
5:54 AM 11.3 °F 1.9 °F 8.4 °F 88% 29.34 in 10.0 mi SSE 5.8 mph - N/A   Overcast
6:14 AM 11.7 °F 1.1 °F 8.6 °F 88% 29.33 in 10.0 mi SSE 6.9 mph - N/A   Overcast
6:34 AM 12.0 °F 5.9 °F 9.1 °F 88% 29.36 in 10.0 mi SSW 3.5 mph - N/A   Overcast
6:53 AM 12.4 °F 4.6 °F 9.5 °F 88% 29.34 in 10.0 mi South 4.6 mph - N/A   Overcast
7:14 AM 12.9 °F 2.6 °F 10.2 °F 89% 29.35 in 10.0 mi SSW 6.9 mph - N/A   Overcast
7:34 AM 16.2 °F 1.3 °F 13.5 °F 89% 29.36 in 10.0 mi West 15.0 mph - N/A   Overcast
7:54 AM 20.1 °F 2.7 °F 17.4 °F 89% 29.35 in 2.5 mi WNW 25.3 mph 34.5 mph N/A   Overcast
8:14 AM 19.4 °F 1.1 °F 16.2 °F 87% 29.36 in 1.8 mi NW 27.6 mph 38.0 mph N/A   Overcast
8:34 AM 18.9 °F 1.0 °F 15.6 °F 87% 29.39 in 1.2 mi WNW 25.3 mph 39.1 mph N/A Snow Light Snow
8:54 AM 18.5 °F 0.9 °F 14.9 °F 86% 29.38 in 2.5 mi WNW 24.2 mph 31.1 mph N/A   Overcast
9:15 AM 18.3 °F 0.7 °F 14.4 °F 85% 29.38 in 2.5 mi NW 24.2 mph 33.4 mph N/A   Overcast
9:34 AM 18.3 °F 1.8 °F 14.0 °F 83% 29.38 in 5.0 mi WNW 20.7 mph - N/A   Scattered Clouds
9:54 AM 17.6 °F 0.1 °F 13.1 °F 83% 29.38 in 7.0 mi WNW 23.0 mph 27.6 mph N/A   Scattered Clouds
10:14 AM 17.6 °F -0.3 °F 13.1 °F 83% 29.40 in 4.0 mi WNW 24.2 mph 29.9 mph N/A   Scattered Clouds
10:34 AM 18.0 °F 1.3 °F 13.1 °F 81% 29.41 in 4.0 mi WNW 20.7 mph 28.8 mph N/A   Haze
10:54 AM 19.0 °F 3.2 °F 13.8 °F 80% 29.42 in 2.5 mi WNW 19.6 mph 33.4 mph N/A   Haze
11:14 AM 19.2 °F 1.5 °F 14.0 °F 80% 29.41 in 3.0 mi WNW 25.3 mph 32.2 mph N/A Snow Light Snow
11:34 AM 19.2 °F 0.9 °F 14.0 °F 80% 29.41 in 3.0 mi WNW 27.6 mph 34.5 mph N/A   Haze
11:54 AM 19.8 °F 2.9 °F 14.7 °F 81% 29.41 in 7.0 mi WNW 23.0 mph 28.8 mph N/A   Mostly Cloudy
12:14 PM 19.6 °F 2.3 °F 14.4 °F 80% 29.42 in 2.5 mi NW 24.2 mph 35.7 mph N/A Snow Light Snow
12:34 PM 19.4 °F 3.2 °F 14.0 °F 80% 29.41 in 4.0 mi NW 20.7 mph 32.2 mph N/A   Haze
12:54 PM 19.2 °F 2.6 °F 13.3 °F 78% 29.41 in 3.0 mi NW 21.9 mph 33.4 mph N/A   Haze
1:15 PM 19.2 °F 1.9 °F 13.8 °F 80% 29.42 in 2.0 mi WNW 24.2 mph 31.1 mph N/A   Haze
1:34 PM 19.4 °F 2.5 °F 14.5 °F 81% 29.42 in 1.8 mi WNW 23.0 mph 28.8 mph N/A Snow Light Snow
1:54 PM 19.4 °F 3.2 °F 14.9 °F 83% 29.43 in 0.8 mi WNW 20.7 mph 28.8 mph N/A Snow Light Snow
2:14 PM 19.8 °F 3.7 °F 14.7 °F 81% 29.43 in 2.0 mi WNW 20.7 mph 28.8 mph N/A   Haze
2:34 PM 19.8 °F 3.7 °F 15.6 °F 84% 29.44 in 1.2 mi WNW 20.7 mph 26.5 mph N/A Snow Light Snow
2:54 PM 18.9 °F 1.4 °F 15.4 °F 87% 29.45 in 0.2 mi WNW 24.2 mph 40.3 mph N/A Snow Snow
3:14 PM 17.6 °F -1.6 °F 14.0 °F 86% 29.48 in 0.5 mi NW 28.8 mph 34.5 mph N/A Snow Light Snow
3:34 PM 15.4 °F -6.3 °F 10.6 °F 81% 29.50 in 0.2 mi NW 35.7 mph 41.4 mph N/A Snow Light Snow
3:54 PM 14.0 °F -8.3 °F 9.3 °F 82% 29.51 in 0.2 mi NW 35.7 mph 47.2 mph N/A Snow Snow
4:14 PM 12.9 °F -11.1 °F 6.3 °F 75% 29.54 in 0.2 mi NW 41.4 mph 50.6 mph N/A Snow Light Snow
4:34 PM 11.8 °F -9.1 °F 4.3 °F 72% 29.57 in 1.0 mi WNW 27.6 mph 40.3 mph N/A   Haze
4:54 PM 10.2 °F -12.3 °F 3.2 °F 73% 29.58 in 0.5 mi NW 31.1 mph 42.6 mph N/A Snow Light Snow
5:15 PM 8.2 °F -15.9 °F 1.2 °F 73% 29.60 in 0.8 mi WNW 34.5 mph 41.4 mph N/A Snow Light Snow
5:34 PM 7.2 °F -19.4 °F 0.9 °F 75% 29.63 in 0.5 mi WNW 42.6 mph 50.6 mph N/A Snow Light Snow
5:55 PM 4.8 °F -19.6 °F 0.1 °F 81% 29.65 in 0.8 mi WNW 31.1 mph 42.6 mph N/A Snow Light Snow
6:14 PM 3.2 °F -24.1 °F -2.0 °F 79% 29.67 in 0.8 mi NW 39.1 mph 48.3 mph N/A Snow Light Snow
6:34 PM 2.8 °F -24.3 °F -2.0 °F 80% 29.69 in 0.8 mi NW 38.0 mph 43.7 mph N/A Snow Light Snow
6:54 PM 1.4 °F -22.3 °F -3.8 °F 79% 29.72 in 1.0 mi NW 25.3 mph 47.2 mph N/A Snow Light Snow
7:14 PM 0.5 °F -25.5 °F -4.2 °F 81% 29.73 in 0.8 mi NW 31.1 mph 43.7 mph N/A Snow Light Snow
7:34 PM 0.3 °F -26.8 °F -5.3 °F 77% 29.75 in 1.2 mi NW 34.5 mph 47.2 mph N/A Snow Light Snow
7:54 PM 0.1 °F -26.7 °F -4.9 °F 79% 29.77 in 1.5 mi NW 33.4 mph 42.6 mph N/A   Haze
8:14 PM -0.4 °F -25.2 °F -5.6 °F 79% 29.78 in 1.8 mi NW 26.5 mph 36.8 mph N/A Snow Light Snow
8:34 PM -0.8 °F -27.2 °F -6.5 °F 77% 29.81 in 1.8 mi NW 31.1 mph 41.4 mph N/A Snow Light Snow
8:54 PM -1.3 °F -25.9 °F -6.9 °F 77% 29.83 in 3.0 mi NW 25.3 mph 34.5 mph N/A   Haze
9:14 PM -1.3 °F -25.9 °F -7.4 °F 75% 29.85 in 3.0 mi NW 25.3 mph 34.5 mph N/A   Haze
9:34 PM -1.7 °F -25.5 °F -7.1 °F 78% 29.87 in 2.5 mi NW 23.0 mph 28.8 mph N/A   Haze
9:55 PM -1.8 °F -26.7 °F -7.6 °F 76% 29.89 in 3.0 mi NW 25.3 mph 36.8 mph N/A   Haze
10:14 PM -2.2 °F -27.1 °F -8.1 °F 76% 29.90 in 2.5 mi NW 25.3 mph 33.4 mph N/A   Haze
10:34 PM -2.6 °F -28.5 °F -8.5 °F 76% 29.92 in 3.0 mi NW 27.6 mph 40.3 mph N/A   Haze
10:54 PM -3.1 °F -29.2 °F -8.5 °F 78% 29.93 in 2.5 mi NW 27.6 mph 31.1 mph N/A   Haze
11:14 PM -3.3 °F -28.1 °F -9.0 °F 76% 29.95 in 3.0 mi NW 24.2 mph 32.2 mph N/A   Haze
11:35 PM -4.0 °F -28.1 °F -9.8 °F 76% 29.97 in 3.0 mi NW 21.9 mph 29.9 mph N/A   Haze
11:54 PM -4.2 °F -29.3 °F -10.3 °F 75% 29.98 in 4.0 mi NW 24.2 mph 29.9 mph N/A   Haze